sat.trackr.live / text

‹ back to catalog

STARLINK-36692

NORAD 67744 · 2026-026Z

PAYLOAD ACTIVE UNKNOWN

§ Identity

Operator
Country
US
Launch date
2026-02-11
Launch site
AFWTR
Launch vehicle
Mass (kg)
RCS (m²)

Purposes: comms

External: N2YO · Heavens-Above · Gunter

§ Orbital elements

Epoch: 2026-05-25T02:58:27.238368Z

Period
93.91 min
Inclination
97.2849°
Eccentricity
0.0000926
Mean motion
15.33454357 rev/d
Perigee alt
464.9 km
Apogee alt
466.1 km
Semi-major
6,843.7 km
B*
6.6599e-4
RAAN
198.7096°
Arg perigee
100.0356°
Mean anomaly
260.0992°
Rev number
1,584

§ Raw data

STARLINK-366921 67744U 26026Z   26145.12392637  .00021493  00000+0  66599-3 0  99912 67744  97.2849 198.7096 0000926 100.0356 260.0992 15.33454357 15847

JSON: /api/v1/satellites/67744 · /tle

For live sub-satellite position, see the globe view (requires WebGL).

§ Visibility from observer

Set your observer location to see the next 7 days of passes ≥ 10°. The values pass through the URL so the page stays shareable.

No JS? Fill the form by hand. The geolocation button needs JavaScript.